OBJECT A, 56731

Orbit data source: Space-Track

You're viewing an Uncataloged Satellite

Recently launched and/or uncataloged satellites may have evolving metadata. Metadata may include but not limited to: Owner, Maufacturer, Bus, Motor, and Mission.

OBJECT A, 56731 is a satellite owned by CASC (CN) in LEO that was launched on Sun, 21 May 2023 UTC via a CHANG ZHENG 2C launch vehicle from the Jiuquan Satellite Launch Center, China (JSC). Unknown objects in Earth's orbit typically refer to objects detected orbiting the Earth but have not yet been identified or cataloged. These objects could be anything from previously untracked satellites, spent rocket stages, debris from satellite collisions, or even natural meteoroids temporarily captured by Earth's gravity.

Loading next visibility...
Identifier
56731, 2023-069A
Orbit
LEO
Country
Flag of CNCN / PRC
Related business
Manufacturer
DFHZ?
Mission
Operational Amateur Science
Bus & Motor
AK1A, Unknown motor
Mass
~200 kg wet, ~200 kg dry
Launch date (UTC)
2023-05-21 (3 years ago)
Launch vehicle
CHANG ZHENG 2C
Launch site
Jiuquan Satellite Launch Center, China (JSC)
Object type
Unknown
Shape & HBR
Box + 2 Pan, 2.0 m
Radar Cross Section
2.815 m², Large (>1 m²)

Expand to show TLE details & history
Last TLE update: 1 day ago

TLE from 1 day ago
0 OBJECT A
1 56731U 23069A   26172.41317308  .00008543  00000-0  20440-3 0  9990
2 56731  40.9941 152.5299 0007898 308.4030  51.6085 15.41502172173705
Epoch: 2026-06-21T09:54Z
TLE epoch observation values (Epoch: 2026-06-21T09:54:58.154Z)
Latitude
0.00004°
Longitude
94.17383°
Altitude
437.883 km
Speed
7.653 km/s
True Right ascension
10h 10m 07s
True Declination
0° 00' 00"
Sunlit
Object was in daylight at epoch
Visualization orbit readout
Latitude
Unknown
Longitude
Unknown
Altitude
Unknown
Speed
Unknown
Apparent Right ascension
Unknown
Apparent Declination
Unknown
Sunlit
N/A
Visualization observer readout
Local Sidereal Time
21:32:44
Azimuth
Unknown
Elevation
Unknown
Doppler factor
Unknown
Orbital elements
Apogee altitude
449.358 km
Perigee altitude
438.581 km
Semi-major axis
6,822.106 km
Eccentricity
0.00079
Inclination
40.9941°
RAAN
152.5299°
Arg. of periapsis
308.403°
True anomaly
51.67948°
Mean anomaly
51.6085°
Eccentric anomaly
51.64399°
Mean motion
3.85182 °/min
Orbital period
93.46 mins
BSTAR
0.0002044
Loading maneuver chart data...
Computing Atmospheric mass density...
Loading historical data...
Loading historical data...
Loading historical data...
Loading historical data...
Loading historical data...
Loading historical data...
Loading historical data...

Documentation

Showing up to 5 results
|